AUA189 LOWW-EDDM

Flight info

Callsign AUA189
Flight time 0h 38m
Altitude 30000
Route SOVIL2B/16 SOVIL DCT SITNI DCT BAGSI DCT MATIG DCT AMADI Q113 NAPSA NAPSA4A
Aircraft A320/M-A320/LB1

Departure

Time 2026-05-04 17:54
Airport Vienna International Airport (LOWW)

Arrival

Time 2026-05-04 18:32
Airport Munich Airport (EDDM)
Time Latitude Longitude Altitude Speed Heading
2026-05-04 17:10 48.11932 16.56657 620 ft 0 kts 206°
2026-05-04 17:42 48.11946 16.56668 626 ft 4 kts 206°
2026-05-04 17:42 48.11970 16.56686 625 ft 4 kts 206°
2026-05-04 17:42 48.11994 16.56704 619 ft 4 kts 206°
2026-05-04 17:42 48.12018 16.56722 620 ft 4 kts 206°
2026-05-04 17:43 48.12012 16.56720 621 ft 4 kts 195°
2026-05-04 17:43 48.11990 16.56732 617 ft 4 kts 140°
2026-05-04 17:43 48.11981 16.56756 615 ft 0 kts 116°
2026-05-04 17:46 48.11979 16.56761 614 ft 3 kts 116°
2026-05-04 17:46 48.11957 16.56830 617 ft 10 kts 116°
2026-05-04 17:46 48.11924 16.56933 615 ft 12 kts 116°
2026-05-04 17:47 48.11884 16.57056 621 ft 14 kts 116°
2026-05-04 17:47 48.11858 16.57195 609 ft 14 kts 77°
2026-05-04 17:47 48.11857 16.57313 613 ft 11 kts 31°
2026-05-04 17:47 48.11920 16.57299 621 ft 9 kts 353°
2026-05-04 17:48 48.11980 16.57307 620 ft 12 kts 44°
2026-05-04 17:48 48.12009 16.57434 615 ft 13 kts 73°
2026-05-04 17:48 48.12000 16.57563 614 ft 11 kts 104°
2026-05-04 17:48 48.11998 16.57577 613 ft 0 kts 104°
2026-05-04 17:50 48.11997 16.57584 612 ft 4 kts 104°
2026-05-04 17:50 48.11986 16.57648 609 ft 8 kts 104°
2026-05-04 17:50 48.11975 16.57710 617 ft 10 kts 104°
2026-05-04 17:50 48.11961 16.57811 622 ft 9 kts 95°
2026-05-04 17:51 48.11937 16.57836 613 ft 0 kts 165°
2026-05-04 17:51 48.11935 16.57837 612 ft 1 kts 165°
2026-05-04 17:51 48.11934 16.57838 612 ft 0 kts 165°
2026-05-04 17:52 48.11933 16.57838 621 ft 0 kts 165°
2026-05-04 17:53 48.11923 16.57842 621 ft 6 kts 165°
2026-05-04 17:53 48.11731 16.57924 612 ft 64 kts 163°
2026-05-04 17:53 48.11077 16.58200 623 ft 128 kts 166°
2026-05-04 17:54 48.10101 16.58631 943 ft 148 kts 162°
2026-05-04 17:54 48.09103 16.59050 1676 ft 150 kts 167°
2026-05-04 17:54 48.08074 16.59459 2299 ft 160 kts 166°
2026-05-04 17:54 48.06931 16.59925 2717 ft 180 kts 167°
2026-05-04 17:55 48.05665 16.60424 3206 ft 196 kts 168°
2026-05-04 17:55 48.04301 16.60955 3665 ft 216 kts 169°
2026-05-04 17:55 48.02755 16.61552 4148 ft 240 kts 168°
2026-05-04 17:55 48.01087 16.62205 4915 ft 253 kts 168°
2026-05-04 17:56 47.99339 16.62714 5773 ft 258 kts 182°
2026-05-04 17:56 47.97579 16.62171 6557 ft 263 kts 207°
2026-05-04 17:56 47.96163 16.60468 7425 ft 266 kts 232°
2026-05-04 17:56 47.95400 16.57946 8312 ft 273 kts 258°
2026-05-04 17:57 47.95441 16.55077 9169 ft 281 kts 274°
2026-05-04 17:57 47.95685 16.52200 10045 ft 284 kts 275°
2026-05-04 17:57 47.95948 16.49152 10405 ft 308 kts 275°
2026-05-04 17:57 47.96229 16.45857 10692 ft 331 kts 274°
2026-05-04 17:58 47.96521 16.42384 11273 ft 341 kts 274°
2026-05-04 17:58 47.96814 16.38831 12042 ft 346 kts 275°
2026-05-04 17:58 47.97109 16.35251 12819 ft 350 kts 274°
2026-05-04 17:58 47.97407 16.31622 13596 ft 354 kts 274°
2026-05-04 17:59 47.97703 16.27988 14276 ft 358 kts 275°
2026-05-04 17:59 47.98001 16.24267 14963 ft 361 kts 274°
2026-05-04 17:59 47.98600 16.16753 16332 ft 367 kts 275°
2026-05-04 18:00 47.98901 16.12989 17032 ft 370 kts 275°
2026-05-04 18:00 47.99208 16.09167 17714 ft 373 kts 275°
2026-05-04 18:00 47.99518 16.05288 18365 ft 376 kts 275°
2026-05-04 18:00 47.99828 16.01374 18943 ft 380 kts 275°
2026-05-04 18:01 48.00130 15.97494 19530 ft 382 kts 275°
2026-05-04 18:01 48.00436 15.93527 20100 ft 386 kts 275°
2026-05-04 18:01 48.00747 15.89523 20703 ft 388 kts 275°
2026-05-04 18:02 48.01371 15.81435 21879 ft 394 kts 275°
2026-05-04 18:02 48.01685 15.77347 22408 ft 398 kts 276°
2026-05-04 18:02 48.01994 15.73265 22946 ft 401 kts 276°
2026-05-04 18:02 48.02309 15.69089 23439 ft 404 kts 276°
2026-05-04 18:03 48.02625 15.64893 23880 ft 407 kts 276°
2026-05-04 18:03 48.02940 15.60676 24298 ft 409 kts 276°
2026-05-04 18:03 48.03254 15.56441 24744 ft 410 kts 276°
2026-05-04 18:03 48.03568 15.52194 25102 ft 414 kts 276°
2026-05-04 18:04 48.03880 15.47945 25483 ft 417 kts 276°
2026-05-04 18:04 48.04196 15.43600 25837 ft 420 kts 276°
2026-05-04 18:04 48.04777 15.34838 26669 ft 423 kts 274°
2026-05-04 18:05 48.04920 15.30479 27073 ft 424 kts 271°
2026-05-04 18:05 48.04981 15.26048 27467 ft 426 kts 270°
2026-05-04 18:05 48.04999 15.21597 27781 ft 429 kts 270°
2026-05-04 18:05 48.05008 15.17177 28176 ft 430 kts 270°
2026-05-04 18:06 48.05075 15.08224 28857 ft 433 kts 271°
2026-05-04 18:06 48.05133 15.03705 29138 ft 436 kts 271°
2026-05-04 18:06 48.05200 14.99156 29410 ft 439 kts 271°
2026-05-04 18:07 48.05270 14.94579 29676 ft 441 kts 271°
2026-05-04 18:07 48.05337 14.90025 29871 ft 443 kts 271°
2026-05-04 18:07 48.05457 14.80955 29908 ft 431 kts 270°
2026-05-04 18:08 48.05533 14.72001 29901 ft 430 kts 270°
2026-05-04 18:08 48.05590 14.63067 29521 ft 426 kts 270°
2026-05-04 18:09 48.05645 14.54191 27573 ft 430 kts 270°
2026-05-04 18:09 48.05701 14.45324 26214 ft 422 kts 270°
2026-05-04 18:10 48.05727 14.41010 25577 ft 418 kts 270°
2026-05-04 18:10 48.05749 14.36678 24943 ft 415 kts 270°
2026-05-04 18:10 48.05769 14.32382 24333 ft 411 kts 270°
2026-05-04 18:10 48.05788 14.28101 23992 ft 410 kts 270°
2026-05-04 18:11 48.05806 14.23833 23864 ft 410 kts 270°
2026-05-04 18:11 48.05823 14.19560 23892 ft 411 kts 270°
2026-05-04 18:11 48.05838 14.15281 23897 ft 411 kts 269°
2026-05-04 18:11 48.05849 14.11045 23893 ft 411 kts 269°
2026-05-04 18:12 48.05856 14.06767 23892 ft 411 kts 269°
2026-05-04 18:12 48.05862 14.02496 23896 ft 411 kts 269°
2026-05-04 18:12 48.05870 13.98217 23896 ft 411 kts 269°
2026-05-04 18:12 48.05879 13.93938 23898 ft 411 kts 269°
2026-05-04 18:13 48.05888 13.89645 23906 ft 411 kts 269°
2026-05-04 18:13 48.05892 13.85424 23904 ft 411 kts 269°
2026-05-04 18:13 48.05892 13.76855 23903 ft 411 kts 269°
2026-05-04 18:14 48.05889 13.72601 23560 ft 406 kts 269°
2026-05-04 18:14 48.05885 13.68376 22896 ft 403 kts 269°
2026-05-04 18:14 48.05880 13.64203 22269 ft 399 kts 269°
2026-05-04 18:15 48.05863 13.56024 21128 ft 392 kts 268°
2026-05-04 18:15 48.06046 13.47930 20069 ft 386 kts 272°
2026-05-04 18:15 48.06277 13.43938 19545 ft 384 kts 274°
2026-05-04 18:16 48.06540 13.39978 19037 ft 381 kts 274°
2026-05-04 18:16 48.06799 13.36085 18537 ft 378 kts 273°
2026-05-04 18:16 48.07043 13.32180 18018 ft 375 kts 273°
2026-05-04 18:17 48.07468 13.24456 16895 ft 371 kts 272°
2026-05-04 18:17 48.07666 13.20612 16369 ft 368 kts 272°
2026-05-04 18:17 48.08046 13.13086 15351 ft 362 kts 272°
2026-05-04 18:18 48.08234 13.09339 14845 ft 360 kts 272°
2026-05-04 18:18 48.08422 13.05619 14347 ft 357 kts 271°
2026-05-04 18:18 48.08610 13.01924 13856 ft 355 kts 271°
2026-05-04 18:18 48.08796 12.98255 13326 ft 352 kts 271°
2026-05-04 18:19 48.09169 12.90963 12887 ft 350 kts 272°
2026-05-04 18:19 48.09425 12.87378 12925 ft 351 kts 274°
2026-05-04 18:19 48.09757 12.83745 12920 ft 350 kts 275°
2026-05-04 18:20 48.10120 12.80149 12916 ft 349 kts 275°
2026-05-04 18:20 48.10491 12.76546 12918 ft 349 kts 275°
2026-05-04 18:20 48.10857 12.72954 12918 ft 349 kts 275°
2026-05-04 18:20 48.11205 12.69409 12918 ft 349 kts 275°
2026-05-04 18:21 48.11549 12.65827 12920 ft 348 kts 274°
2026-05-04 18:21 48.11890 12.62220 12918 ft 348 kts 274°
2026-05-04 18:21 48.12218 12.58674 12676 ft 345 kts 274°
2026-05-04 18:21 48.12544 12.55126 12095 ft 343 kts 274°
2026-05-04 18:22 48.12869 12.51573 11541 ft 341 kts 274°
2026-05-04 18:22 48.13188 12.48066 11005 ft 338 kts 275°
2026-05-04 18:22 48.13500 12.44630 10458 ft 336 kts 275°
2026-05-04 18:22 48.14069 12.41280 10193 ft 326 kts 292°
2026-05-04 18:23 48.15384 12.38652 10067 ft 308 kts 317°
2026-05-04 18:23 48.17214 12.37120 9660 ft 301 kts 342°
2026-05-04 18:23 48.19278 12.36646 9083 ft 301 kts 354°
2026-05-04 18:23 48.21365 12.36420 8707 ft 299 kts 354°
2026-05-04 18:24 48.23412 12.36209 8347 ft 296 kts 355°
2026-05-04 18:24 48.25482 12.35988 7973 ft 293 kts 355°
2026-05-04 18:24 48.27485 12.35764 7607 ft 291 kts 355°
2026-05-04 18:24 48.29499 12.35528 7231 ft 289 kts 355°
2026-05-04 18:25 48.31501 12.35281 6861 ft 286 kts 355°
2026-05-04 18:25 48.33447 12.34810 6487 ft 283 kts 339°
2026-05-04 18:25 48.35143 12.33349 6087 ft 279 kts 320°
2026-05-04 18:25 48.36478 12.31253 5661 ft 277 kts 304°
2026-05-04 18:26 48.37370 12.28702 5239 ft 275 kts 288°
2026-05-04 18:26 48.37744 12.25933 5002 ft 274 kts 272°
2026-05-04 18:26 48.37644 12.23064 4994 ft 276 kts 263°
2026-05-04 18:26 48.37434 12.20183 4994 ft 276 kts 263°
2026-05-04 18:27 48.37229 12.17318 4997 ft 276 kts 263°
2026-05-04 18:27 48.37022 12.14473 4996 ft 268 kts 263°
2026-05-04 18:27 48.36825 12.11789 5000 ft 249 kts 263°
2026-05-04 18:27 48.36641 12.09292 5002 ft 232 kts 263°
2026-05-04 18:28 48.36466 12.06928 4862 ft 224 kts 263°
2026-05-04 18:28 48.36297 12.04639 4604 ft 222 kts 263°
2026-05-04 18:28 48.36126 12.02337 4310 ft 219 kts 263°
2026-05-04 18:28 48.35959 12.00102 4066 ft 211 kts 263°
2026-05-04 18:29 48.35800 11.97965 3768 ft 199 kts 263°
2026-05-04 18:29 48.35651 11.95985 3515 ft 182 kts 263°
2026-05-04 18:29 48.35517 11.94188 3302 ft 165 kts 263°
2026-05-04 18:29 48.35394 11.92560 3094 ft 154 kts 263°
2026-05-04 18:30 48.35157 11.89430 2692 ft 148 kts 264°
2026-05-04 18:30 48.35042 11.87894 2517 ft 148 kts 264°
2026-05-04 18:30 48.34929 11.86372 2341 ft 145 kts 265°
2026-05-04 18:31 48.34814 11.84881 2143 ft 143 kts 264°
2026-05-04 18:31 48.34701 11.83403 1933 ft 141 kts 264°
2026-05-04 18:31 48.34588 11.81936 1748 ft 141 kts 265°
2026-05-04 18:31 48.34480 11.80480 1565 ft 140 kts 264°
2026-05-04 18:32 48.34365 11.79093 1488 ft 125 kts 263°
2026-05-04 18:32 48.34294 11.78005 1480 ft 80 kts 263°
2026-05-04 18:32 48.34247 11.77398 1485 ft 38 kts 264°
2026-05-04 18:32 48.34315 11.77064 1481 ft 31 kts 290°
2026-05-04 18:33 48.34389 11.76804 1485 ft 23 kts 293°
2026-05-04 18:33 48.34488 11.76700 1485 ft 18 kts
2026-05-04 18:33 48.34571 11.76728 1485 ft 12 kts 66°
2026-05-04 18:33 48.34582 11.76847 1474 ft 11 kts 84°
2026-05-04 18:34 48.34590 11.76951 1482 ft 9 kts 82°
2026-05-04 18:34 48.34601 11.77085 1485 ft 15 kts 83°
2026-05-04 18:34 48.34613 11.77249 1479 ft 17 kts 83°
2026-05-04 18:34 48.34628 11.77434 1477 ft 19 kts 83°
2026-05-04 18:35 48.34644 11.77638 1485 ft 21 kts 83°
2026-05-04 18:35 48.34663 11.77865 1485 ft 23 kts 83°
2026-05-04 18:35 48.34677 11.78076 1485 ft 18 kts 89°
2026-05-04 18:35 48.34693 11.78274 1485 ft 20 kts 83°
2026-05-04 18:36 48.34707 11.78452 1485 ft 17 kts 83°
2026-05-04 18:36 48.34721 11.78641 1482 ft 19 kts 83°
2026-05-04 18:36 48.34738 11.78850 1485 ft 21 kts 83°
2026-05-04 18:36 48.34754 11.79058 1479 ft 16 kts 82°
2026-05-04 18:37 48.34762 11.79173 1485 ft 17 kts 83°
2026-05-04 18:37 48.34774 11.79337 1480 ft 16 kts 83°
2026-05-04 18:37 48.34786 11.79506 1481 ft 17 kts 83°
2026-05-04 18:37 48.34796 11.79633 1475 ft 10 kts 83°
2026-05-04 18:38 48.34824 11.79691 1481 ft 6 kts
2026-05-04 18:38 48.34862 11.79692 1482 ft 5 kts 352°
2026-05-04 18:38 48.34890 11.79687 1478 ft 4 kts 352°
2026-05-04 18:38 48.34910 11.79683 1484 ft 4 kts 352°
2026-05-04 18:39 48.34976 11.79670 1485 ft 12 kts 353°
2026-05-04 18:39 48.35056 11.79686 1478 ft 12 kts 40°
2026-05-04 18:39 48.35078 11.79799 1485 ft 11 kts 83°
2026-05-04 18:39 48.35087 11.79902 1479 ft 9 kts 83°
2026-05-04 18:40 48.35094 11.80006 1485 ft 13 kts 84°
2026-05-04 18:40 48.35106 11.80139 1485 ft 12 kts 84°
2026-05-04 18:40 48.35139 11.80227 1485 ft 9 kts 18°
2026-05-04 18:40 48.35198 11.80220 1485 ft 8 kts 353°
2026-05-04 18:41 48.35250 11.80211 1483 ft 10 kts 353°
2026-05-04 18:41 48.35348 11.80194 1485 ft 12 kts 353°
2026-05-04 18:41 48.35419 11.80167 1473 ft 8 kts 341°
2026-05-04 18:41 48.35466 11.80159 1482 ft 6 kts 354°
2026-05-04 18:42 48.35506 11.80152 1476 ft 8 kts 354°
2026-05-04 18:42 48.35567 11.80142 1479 ft 7 kts 354°
2026-05-04 18:42 48.35592 11.80117 1480 ft 4 kts 289°
2026-05-04 18:42 48.35592 11.80060 1485 ft 5 kts 264°
2026-05-04 18:43 48.35588 11.80012 1485 ft 3 kts 263°
2026-05-04 18:43 48.35587 11.79995 1473 ft 0 kts 263°
2026-05-04 18:43 48.35587 11.79994 1473 ft 1 kts 263°
2026-05-04 18:43 48.35587 11.79993 1473 ft 0 kts 263°